www.pogodaiklimat.ru

Погода и климат >> Архив погоды >> Нидерланды >> Де Билт


АРХИВ ПОГОДЫ в Де Билте

Время (UTC), дата Ветер
(напр.,м/с)
 
Видим.   Явления Облачность Т
(С)
Тd
(С)
f
(%)
Тe
(С)
Тes
(С)
Комфортность P
(гПа)
Po
(гПа)
Тmin
(С)
Tmax
(С)
R
(мм)
R24
(мм)
S
(см)
01 12.08 Ю 3-5
{5}
35 км ясно +14.8 +11.1 78 +14 +14 1013.3 1012.9
02 12.08 ЮЗ 3-6
{6}
30 км ясно +14.6 +11.3 81 +14 +14 1013.2 1012.8
03 12.08 Ю 4-7
{7}
28 км ясно +14.4 +11.4 82 +13 +13 1013.3 1012.9
04 12.08 Ю 4 23 км ясно +13.9 +11.5 85 +12 +12 1013.4 1013.0
05 12.08 Ю 4 20 км ясно +13.9 +11.7 87 +12 +12 1013.7 1013.3
06 12.08 Ю 4-6
{7}
18 км ясно +15.2 +12.5 84 +14 +15 1013.7 1013.3 +13.7
07 12.08 ЮЗ 5 19 км 8/8 300 м
[]
+16.4 +13.4 82 +15 +16 1014.0 1013.6
08 12.08 ЮЗ 5 17 км 4/4 300 м
[]
+17.9 +13.8 77 +17 +19 1014.3 1013.9
09 12.08 ЮЗ 5-8
{9}
27 км 1/1 540 м
[]
+19.0 +13.2 69 +20 +24 1014.3 1013.8
10 12.08 ЮЗ 4 25 км 3/3 600 м
[]
+20.4 +12.8 62 +23 +28 комфорт 1013.9 1013.6
11 12.08 З 5 35 км 9/9 1000 м
[]
+19.3 +11.5 61 +20 +21 1014.2 1013.8
12 12.08 З 3-6
{11}
30 км 4/4 1140 м
[]
+21.1 +11.2 53 +23 +30 комфорт 1013.7 1013.3
13 12.08 З 2 29 км слаб. ливневой дождь 9/6 1000 м
[]
+19.1 +15.3 79 +21 +24 комфорт 1013.6 1013.1 0.9
14 12.08 СЗ 4 8000 м гроза, ливневой дождь 10/10 1500 м
[]
+16.7 +14.3 86 +16 +16 1014.2 1013.5 1
15 12.08 штиль 0-1
{8}
30 км слаб. дождь {гроза} 10/10 60 м
[]
+15.8 +13.1 84 +16 +16 1014.0 1013.5 1
16 12.08 штиль 0 18 км слаб. ливневой дождь {гроза} 10/10 1500 м
[]
+16.1 +14.3 89 +16 +16 1013.7 1013.3 0.2
17 12.08 Ю 2 30 км в посл. час дождь {гроза, ливн. осадки} 10/10
[]
+16.0 +13.9 87 +16 +16 1013.3 1012.9
18 12.08 Ю 2-3
{4}
30 км слаб. ливневой дождь {гроза} 10/9 570 м
[]
+15.8 +13.8 88 +16 +16 1013.7 1013.2 +21.7
19 12.08 Ю 2 35 км гроза, ливневой дождь {морось} 10/10 600 м
[]
+15.4 +13.5 88 +15 +15 1014.3 1014.0
20 12.08 Ю 1 14 км в посл. час гроза без осадков {ливн. осадки} 9/6
[]
+14.2 +13.2 94 +14 +14 1014.7 1014.3
21 12.08 В 1-1
{3}
6000 м гроза, ливневой дождь 10/10 30 м
[]
+14.3 +13.9 97 +15 +15 1014.7 1014.3 2
22 12.08 С 1-1
{3}
8000 м дождь {гроза, ливн. осадки} 10/10 1500 м
[]
+13.8 +12.8 94 +14 +14 1014.9 1014.4 6
23 12.08 Ю 1-1
{2}
9000 м в посл. час гроза без осадков {ливн. осадки} 10/9 600 м
[]
+13.4 +12.9 97 +13 +13 1014.9 1014.5 2
00 13.08 ЮЗ 1-2
{3}
5000 м ливневой дождь {гроза} 10/10 450 м
[]
+13.1 +12.5 96 +13 +13 1014.9 1014.5 0.8
01 13.08 З 1-2
{3}
16 км морось с дождем 10/6 1000 м
[]
+13.1 +12.1 94 +13 +13 1014.9 1014.5 0.6
02 13.08 ЮЗ 2-3
{3}
8000 м дождь {морось} 10/10 1500 м
[]
+12.9 +12.2 96 +12 +12 1015.2 1014.7 0.9
03 13.08 З 2-5
{8}
16 км дождь {морось} 9/9 90 м
[]
+11.7 +10.6 93 +10 +10 1015.4 1015.1 4
04 13.08 ЮЗ 2 19 км в посл. час дождь {морось} 8/8
[]
+10.4 +9.8 96 +9 +9 1015.6 1015.2
05 13.08 ЮЗ 2 13 км {дождь, морось} 3/1 1000 м
[]
+10.7 +10.1 96 +9 +9 1016.0 1015.4
06 13.08 ЮЗ 3-4
{5}
19 км слаб. ливневой дождь {морось} 9/9 930 м
[]
+12.4 +11.4 94 +11 +11 1016.1 1015.7 +10.3 0.7
07 13.08 ЮЗ 3 25 км в посл. час дождь 4/4 2000 м
[]
+14.1 +12.1 88 +13 +15 1016.3 1015.9
08 13.08 ЮЗ 3 27 км 1/1
[]
+16.1 +12.5 79 +16 +20 1016.7 1016.3
09 13.08 ЮЗ 3-5
{6}
30 км гроза без осадков 5/5 800 м
[]
+17.3 +12.3 72 +17 +22 1016.7 1016.4
10 13.08 СЗ 2 45 км в посл. час гроза без осадков 8/8 1500 м
[]
+16.8 +11.8 72 +17 +19 1016.7 1016.3 0.4
11 13.08 ЮЗ 6 45 км зарница {гроза} 10/10
[]
+17.1 +10.3 64 +16 +16 1017.0 1016.6
12 13.08 ЮЗ 4-7
{10}
20 км гроза, ливневой дождь 10/10 1320 м
[]
+14.1 +10.5 79 +13 +13 1017.6 1017.2 0.4
13 13.08 З 2 22 км слаб. ливневой дождь {гроза} 10/10
[]
+15.4 +12.0 80 +15 +15 1017.0 1016.8 1
14 13.08 ЮЗ 4 30 км гроза без осадков 10/10
[]
+18.3 +11.9 66 +18 +18 1016.6 1016.2
15 13.08 З 2-5
{7}
40 км гроза без осадков {ливн. осадки} 3/3 1050 м
[]
+17.8 +12.2 70 +18 +23 1016.6 1016.3 1
16 13.08 З 4 45 км в посл. час гроза без осадков {ливн. осадки} 3/3 1000 м
[]
+17.7 +9.4 58 +17 +19 1016.7 1016.3
17 13.08 З 4 45 км {гроза, ливн. осадки} 6/6 1000 м
[]
+17.6 +10.4 63 +17 +18 1016.7 1016.3
18 13.08 З 3-6
{10}
45 км {гроза, ливн. осадки} 1/1 1000 м
[]
+16.5 +10.1 66 +16 +17 1017.1 1016.6 +18.4
19 13.08 З 2 45 км зарница 10/10
[]
+15.2 +10.3 73 +15 +15 1017.5 1017.1
20 13.08 ЮЗ 2 45 км в посл. час дождь 8/8
[]
+12.6 +10.3 86 +12 +12 1017.8 1017.4 0.2
21 13.08 ЮЗ 2-3
{5}
40 км {ливн. осадки} 10/10 2000 м
[]
+12.4 +10.4 88 +11 +11 1018.1 1017.7
22 13.08 ЮЗ 3-4
{4}
45 км {ливн. осадки} 10/10 2000 м
[]
+13.1 +9.7 80 +12 +12 1017.9 1017.5
23 13.08 Ю 2-4
{4}
45 км {ливн. осадки} 10/10 2000 м
[]
+13.4 +9.3 76 +13 +13 1017.6 1017.1
00 14.08 Ю 3-4
{4}
45 км {ливн. осадки} 10/9 2000 м
[]
+13.0 +9.4 79 +12 +12 1017.5 1017.1
01 14.08 ЮЗ 4-7
{7}
45 км в посл. час дождь {ливн. осадки} 10/10 1500 м
[]
+13.0 +9.4 79 +11 +11 1017.5 1017.1 0.1
02 14.08 ЮЗ 4-6
{6}
45 км слаб. морось 10/10 1500 м
[]
+13.2 +8.9 75 +12 +12 1017.5 1017.1
03 14.08 ЮЗ 4-7
{7}
45 км в посл. час дождь {ливн. осадки, морось} 10/10 1500 м
[]
+14.2 +7.2 63 +13 +13 1017.2 1016.8
04 14.08 Ю 2 45 км {ливн. осадки, морось} 9/9
[]
+12.6 +8.6 77 +12 +12 1017.2 1016.8
05 14.08 Ю 2 45 км {ливн. осадки, морось} 6/6
[]
+10.9 +9.2 89 +10 +10 1017.7 1017.3
06 14.08 Ю 3-6
{8}
23 км {ливн. осадки, морось} 1/1 700 м
[]
+12.9 +10.3 84 +12 +12 1017.7 1017.3 +10.9
07 14.08 Ю 4 12 км 8/8
[]
+14.5 +11.9 84 +13 +14 1017.6 1017.3
08 14.08 ЮЗ 4 9000 м дымка 10/10 200 м
[]
+15.2 +12.7 85 +14 +14 1017.6 1017.1
09 14.08 ЮЗ 4-6
{7}
16 км 8/8 300 м
[]
+17.6 +14.2 80 +17 +19 1017.4 1017.1
10 14.08 Ю 5 30 км 1/1 600 м
[]
+19.2 +13.4 69 +20 +26 1017.0 1016.7
11 14.08 Ю 5 30 км 10/9
[]
+19.6 +12.1 62 +21 +21 комфорт 1016.6 1016.2
12 14.08 Ю 5-7
{9}
30 км 4/4 1080 м
[]
+20.6 +11.5 56 +22 +27 комфорт 1016.4 1016.0
13 14.08 Ю 5 35 км 9/9
[]
+20.0 +10.4 54 +21 +22 комфорт 1015.9 1015.5
14 14.08 Ю 5 45 км 10/10 1500 м
[]
+20.2 +10.6 54 +22 +22 комфорт 1015.5 1015.1
15 14.08 Ю 5-9
{10}
35 км 10/10 1320 м
[]
+20.5 +10.8 54 +22 +22 комфорт 1014.9 1014.5
16 14.08 ЮЗ 4 45 км в посл. час дождь 10/10 2000 м
[]
+19.6 +11.0 58 +21 +21 комфорт 1014.5 1014.2
17 14.08 Ю 3 40 км слаб. ливневой дождь {морось} 10/10 2000 м
[]
+18.5 +12.2 67 +19 +19 1013.9 1013.5
18 14.08 Ю 2-3
{9}
13 км слаб. дождь {морось} 10/10 150 м
[]
+16.7 +13.7 82 +17 +17 1013.6 1013.3 +21.1 0.8
19 14.08 Ю 3 45 км слаб. ливневой дождь 10/10 1500 м
[]
+16.6 +13.1 80 +16 +16 1012.9 1012.5 0.3
20 14.08 ЮВ 2 11 км дождь {ливн. осадки, морось} 10/10 1000 м
[]
+15.3 +13.9 91 +15 +15 1012.4 1012.1 1
21 14.08 ЮВ 3-6
{6}
6000 м слаб. дождь {морось} 10/10 330 м
[]
+15.2 +14.2 94 +14 +14 1011.7 1011.4 2
22 14.08 ЮВ 3-7
{7}
9000 м морось с дождем {ливн. осадки} 10/10 600 м
[]
+15.3 +14.4 94 +15 +15 1011.0 1010.6 2
23 14.08 Ю 4-6
{6}
13 км морось с дождем {ливн. осадки} 10/8 1000 м
[]
+15.5 +14.3 93 +14 +14 1010.2 1009.8 0.6
00 15.08 Ю 4-8
{8}
18 км слаб. ливневой дождь 10/10 300 м
[]
+16.1 +14.7 91 +15 +15 1009.4 1009.0 0.1
01 15.08 Ю 4-7
{7}
8000 м морось с дождем {ливн. осадки} 10/10 200 м
[]
+15.9 +15.2 96 +15 +15 1008.6 1008.2 0.3
02 15.08 Ю 5-7
{7}
11 км в посл. час дождь {ливн. осадки, морось} 10/10 200 м
[]
+16.2 +15.3 94 +15 +15 1007.9 1007.6
03 15.08 Ю 5-8
{8}
13 км {ливн. осадки, морось} 10/10 210 м
[]
+16.4 +15.3 93 +15 +15 1007.2 1006.8
04 15.08 Ю 4 13 км {ливн. осадки, морось} 10/9 300 м
[]
+16.5 +15.3 93 +16 +16 1006.9 1006.5
05 15.08 Ю 4 7000 м морось с дождем {ливн. осадки} 10/10 300 м
[]
+16.5 +15.3 93 +16 +16 1006.9 1006.5
06 15.08 ЮЗ 4-7
{8}
7000 м морось с дождем {ливн. осадки} 10/10 180 м
[]
+16.6 +15.7 94 +16 +16 1006.9 1006.5 +15.1 0.3
07 15.08 ЮЗ 4 10 км в посл. час дождь {морось} 10/9 300 м
[]
+17.1 +16.1 94 +17 +17 1006.9 1006.5 0.1
08 15.08 ЮЗ 4 8000 м сильн. морось {ливн. осадки, дождь} 10/8 300 м
[]
+17.7 +16.5 93 +17 +18 1007.2 1006.8 0.2
09 15.08 З 4-7
{9}
12 км дождь {ливн. осадки, морось} 10/10 90 м
[]
+17.9 +16.2 90 +18 +19 1007.5 1007.0 1
10 15.08 З 5 29 км в посл. час дождь {ливн. осадки, морось} 10/10 1000 м
[]
+18.9 +15.3 80 +20 +20 1008.1 1007.6 0.1
11 15.08 З 5 29 км в посл. час дождь {ливн. осадки} 6/6
[]
+20.5 +14.4 68 +23 +26 комфорт 1008.6 1008.2
12 15.08 З 5-10
{12}
35 км в посл. час дождь {ливн. осадки} 10/10 900 м
[]
+20.1 +13.6 66 +22 +22 комфорт 1009.4 1008.9
13 15.08 З 6 35 км в посл. час дождь {ливн. осадки} 8/8 1500 м
[]
+19.6 +13.6 68 +21 +22 комфорт 1009.8 1009.3
14 15.08 З 4 35 км в посл. час дождь {ливн. осадки} 10/10 1500 м
[]
+18.6 +15.5 82 +19 +19 1010.4 1010.0 1
15 15.08 З 6-10
{11}
40 км {ливн. осадки} 10/10 750 м
[]
+19.2 +13.6 70 +20 +21 1011.0 1010.6
16 15.08 З 6 30 км в посл. час дождь 5/4 1000 м
[]
+19.9 +13.6 67 +21 +22 комфорт 1011.4 1011.0 0.1
17 15.08 З 4 45 км {ливн. осадки} 9/8 1000 м
[]
+19.1 +13.4 70 +20 +20 1012.2 1011.7
18 15.08 З 3-5
{13}
45 км в посл. час дождь 10/10 750 м
[]
+17.5 +13.6 78 +18 +18 1013.0 1012.6 +20.8
19 15.08 З 2 35 км в посл. час дождь {ливн. осадки, морось} 10/10 1500 м
[]
+16.4 +14.0 86 +16 +16 1013.8 1013.4 0.4
20 15.08 З 2 30 км {ливн. осадки, морось} 4/4 1500 м
[]
+16.1 +13.6 85 +16 +16 1014.7 1014.2
21 15.08 З 2-3
{5}
35 км {ливн. осадки, морось} 9/9 1500 м
[]
+15.9 +12.7 81 +16 +16 1015.2 1014.8
22 15.08 ЮЗ 2-4
{4}
30 км {ливн. осадки, морось} 6/6 1500 м
[]
+15.0 +12.5 85 +15 +15 1015.7 1015.2
23 15.08 ЮЗ 2-3
{3}
28 км {ливн. осадки, морось} ясно +13.3 +12.2 93 +13 +13 1015.9 1015.5
00 16.08 ЮЗ 2-2
{4}
17 км {ливн. осадки, морось} ясно +12.2 +11.6 96 +11 +11 1015.9 1015.5
01 16.08 ЮЗ 2-3
{3}
21 км ясно +11.8 +11.3 97 +11 +11 1016.1 1015.7
02 16.08 ЮЗ 2-3
{3}
20 км 9/9
[]
+11.0 +10.3 95 +10 +10 1016.1 1015.7
03 16.08 ЮЗ 1-1
{3}
2700 м дымка 10/5 1500 м
[]
+10.5 +10.2 98 +10 +10 1016.2 1015.8
04 16.08 ЮЗ 1 16 км в посл. час туман {дымка} 10/10 1500 м
[]
+11.7 +11.6 99 +11 +11 1016.4 1016.0
05 16.08 Ю 1 12 км {туман, дымка} 10/10 1500 м
[]
+12.6 +12.4 99 +12 +12 1016.5 1016.1
06 16.08 ЮВ 1-1
{3}
14 км {туман, дымка} 10/3 1500 м
[]
+14.7 +13.8 94 +15 +15 1016.4 1016.0 +10.1
07 16.08 Ю 2 23 км 10/10
[]
+16.3 +13.7 85 +16 +16 1016.5 1016.0
08 16.08 Ю 2 28 км 9/8
[]
+17.9 +13.2 74 +18 +19 1016.3 1015.9
09 16.08 Ю 3-6
{6}
30 км 9/9 960 м
[]
+19.0 +12.9 68 +20 +21 1016.0 1015.7
10 16.08 Ю 4 26 км 9/6 1000 м
[]
+19.4 +13.2 67 +21 +23 комфорт 1015.7 1015.3
11 16.08 Ю 4 13 км 10/8 1000 м
[]
+19.7 +14.6 72 +22 +23 комфорт 1015.2 1014.9
12 16.08 Ю 5-8
{9}
20 км 10/9 800 м
[]
+20.8 +13.9 65 +23 +25 комфорт 1015.0 1014.6
13 16.08 ЮЗ 5 35 км 10/10 1500 м
[]
+20.8 +13.0 61 +23 +23 комфорт 1014.5 1014.1
14 16.08 Ю 4 35 км 10/8 1000 м
[]
+20.8 +12.9 61 +23 +24 комфорт 1013.7 1013.4
15 16.08 Ю 5-8
{9}
30 км 10/5 1080 м
[]
+20.6 +13.1 62 +23 +23 комфорт 1013.0 1012.6
16 16.08 Ю 3 40 км 10/10
[]
+20.9 +13.4 62 +24 +24 комфорт 1012.3 1012.0
17 16.08 Ю 3 45 км 10/10
[]
+20.5 +12.9 62 +23 +23 комфорт 1012.0 1011.6
18 16.08 Ю 3-4
{9}
45 км 10/10 2000 м
[]
+20.1 +13.5 66 +22 +22 комфорт 1011.2 1010.8 +21.5
19 16.08 Ю 3 35 км слаб. морось с дождем 10/10
[]
+19.2 +13.9 71 +21 +21 комфорт 1010.9 1010.5
20 16.08 Ю 3 40 км слаб. морось с дождем 10/10 2000 м
[]
+19.2 +13.4 69 +21 +21 комфорт 1010.5 1010.1
21 16.08 Ю 5-8
{8}
35 км слаб. морось с дождем 10/10
[]
+18.7 +13.6 72 +19 +19 1010.1 1009.7
22 16.08 Ю 4-7
{7}
22 км слаб. дождь {морось} 10/10
[]
+17.7 +14.2 80 +17 +17 1009.6 1009.2 0.2
23 16.08 Ю 4-6
{8}
35 км слаб. морось {дождь} 10/10 2000 м
[]
+17.2 +14.4 84 +17 +17 1008.6 1008.3 0.4
00 17.08 Ю 4-7
{8}
45 км в посл. час дождь {ливн. осадки, морось} 10/10 1440 м
[]
+17.5 +14.3 81 +17 +17 1007.8 1007.5
01 17.08 Ю 4-7
{8}
45 км 10/10 1500 м
[]
+17.6 +14.3 81 +17 +17 1007.2 1006.8
02 17.08 Ю 4-7
{7}
40 км 10/10 1500 м
[]
+17.5 +14.3 81 +17 +17 1006.6 1006.3
03 17.08 Ю 4-6
{7}
45 км слаб. ливневой дождь 10/10 1470 м
[]
+17.5 +14.1 80 +17 +17 1006.0 1005.6 0.1
04 17.08 ЮЗ 4 45 км в посл. час дождь {ливн. осадки, морось} 10/6 600 м
[]
+17.6 +14.0 79 +17 +17 1005.9 1005.5
05 17.08 Ю 5 4600 м морось {ливн. осадки, дождь} 10/6 300 м
[]
+16.2 +15.3 94 +15 +15 1005.9 1005.5 0.1
06 17.08 Ю 4-9
{10}
28 км в посл. час дождь {ливн. осадки, морось} 10/10 210 м
[]
+16.8 +15.4 91 +16 +16 1005.8 1005.5 +16.2
07 17.08 Ю 5 30 км 10/10 300 м
[]
+17.4 +15.5 89 +17 +17 1006.1 1005.7
08 17.08 ЮЗ 5 23 км 10/10 300 м
[]
+17.8 +15.6 87 +17 +17 1006.3 1005.8
09 17.08 ЮЗ 4-7
{10}
19 км 10/10 270 м
[]
+18.1 +16.0 88 +18 +18 1006.6 1006.2
10 17.08 Ю 4 20 км в посл. час дождь {ливн. осадки, морось} 10/10 300 м
[]
+18.4 +16.8 90 +19 +19 1006.6 1006.2 0.4
11 17.08 Ю 5 7000 м дымка {ливн. осадки} 10/9 200 м
[]
+18.2 +17.0 93 +18 +18 1006.7 1006.3
12 17.08 Ю 5-8
{9}
6000 м в посл. час дождь {ливн. осадки} 10/10 180 м
[]
+19.2 +18.1 93 +21 +22 комфорт 1006.5 1006.1 0.2
13 17.08 ЮЗ 3 11 км слаб. ливневой дождь {морось} 10/9 300 м
[]
+19.0 +17.8 93 +21 +21 комфорт 1006.2 1005.8 0.4
14 17.08 З 2 4300 м сильн. дождь {ливн. осадки, морось} 10/6 200 м
[]
+18.4 +17.4 94 +20 +21 1006.2 1005.8 4
15 17.08 ЮЗ 5-10
{10}
4100 м сильн. дождь {ливн. осадки, морось} 10/10 30 м
[]
+17.7 +16.6 93 +17 +18 1006.3 1006.0 7
16 17.08 ЮЗ 3 40 км в посл. час дождь {ливн. осадки, морось} 10/10 1000 м
[]
+17.2 +15.5 90 +17 +17 1006.3 1005.8 0.8
17 17.08 ЮЗ 3 35 км {ливн. осадки, дождь} 10/10
[]
+17.8 +16.1 90 +18 +18 1006.5 1005.9
18 17.08 ЮЗ 3-5
{10}
30 км {ливн. осадки, дождь} 10/5
[]
+17.9 +15.2 84 +18 +18 1006.5 1006.0 +19.2
19 17.08 ЮЗ 3 19 км 10/10
[]
+17.2 +14.5 84 +17 +17 1006.5 1006.1
20 17.08 ЮЗ 3 19 км в посл. час дождь 10/10
[]
+16.3 +14.0 86 +16 +16 1007.0 1006.6
21 17.08 ЮЗ 2-4
{5}
18 км {ливн. осадки} 10/0
[]
+15.9 +14.1 89 +16 +16 1006.9 1006.6
22 17.08 ЮЗ 3-4
{4}
20 км {ливн. осадки} 10/10
[]
+16.1 +14.0 87 +16 +16 1006.8 1006.5
23 17.08 ЮЗ 2-3
{4}
22 км {ливн. осадки} 10/10
[]
+16.0 +13.9 87 +16 +16 1006.7 1006.3
00 18.08 Ю 2-4
{5}
20 км {ливн. осадки} 10/10
[]
+15.9 +14.1 89 +16 +16 1006.7 1006.3
01 18.08 Ю 2-4
{4}
19 км 10/10
[]
+15.8 +13.6 87 +16 +16 1006.2 1005.9
02 18.08 Ю 3-5
{5}
17 км 10/10 2000 м
[]
+15.8 +14.0 89 +15 +15 1006.0 1005.6
03 18.08 Ю 3-5
{5}
14 км слаб. морось {дождь} 10/10 1500 м
[]
+15.9 +14.2 90 +15 +15 1005.4 1005.1
04 18.08 Ю 2 13 км в посл. час дождь {ливн. осадки, морось} 10/10
[]
+15.6 +14.3 92 +15 +15 1005.0 1004.5
05 18.08 Ю 2 11 км слаб. ливневой дождь {морось} 10/10 1500 м
[]
+15.6 +14.3 92 +15 +15 1005.1 1004.7 0.1
06 18.08 Ю 3-5
{6}
11 км слаб. морось {дождь} 10/10 240 м
[]
+15.7 +14.6 93 +15 +15 1004.8 1004.3 +15.6
07 18.08 Ю 3 11 км слаб. морось 10/9 300 м
[]
+16.2 +15.0 93 +16 +16 1004.4 1004.0
08 18.08 Ю 3 19 км в посл. час дождь {ливн. осадки, морось} 10/10 2000 м
[]
+16.7 +14.7 88 +16 +16 1004.3 1003.9
09 18.08 ЮЗ 3-4
{6}
24 км слаб. морось с дождем 10/10 600 м
[]
+16.5 +13.9 85 +16 +18 1004.3 1004.0 0.1
10 18.08 Ю 3 16 км слаб. морось с дождем 10/6 300 м
[]
+16.1 +13.6 85 +16 +18 1004.5 1004.0
11 18.08 ЮЗ 2 30 км в посл. час дождь {ливн. осадки, морось} 10/10 600 м
[]
+17.0 +14.0 82 +17 +17 1004.5 1004.1
12 18.08 Ю 3-5
{6}
30 км {ливн. осадки, морось} 10/10 1080 м
[]
+17.8 +13.8 77 +18 +18 1005.0 1004.6
13 18.08 Ю 4 35 км 10/6 600 м
[]
+17.9 +14.4 80 +18 +19 1005.6 1005.2
14 18.08 ЮЗ 3 35 км 10/8 600 м
[]
+18.1 +14.8 81 +18 +19 1006.2 1005.8
15 18.08 ЮЗ 3-7
{8}
45 км в посл. час дождь 10/10 800 м
[]
+18.2 +14.2 77 +19 +19 1006.7 1006.3
16 18.08 З 3 35 км 10/8 1500 м
[]
+19.5 +14.1 71 +21 +22 комфорт 1007.0 1006.6
17 18.08 ЮЗ 5 40 км 3/1 600 м
[]
+19.7 +13.1 66 +21 +22 комфорт 1007.0 1006.6
18 18.08 ЮЗ 3-8
{9}
45 км 4/4 1020 м
[]
+18.9 +12.8 68 +20 +20 1007.6 1007.1 +19.9
19 18.08 ЮЗ 3 45 км 1/1 600 м
[]
+17.5 +13.0 75 +18 +18 1008.2 1007.8
20 18.08 ЮЗ 5 27 км 6/6
[]
+16.8 +13.0 78 +16 +16 1008.8 1008.4
21 18.08 ЮЗ 4-7
{8}
28 км 5/0
[]
+16.2 +12.2 77 +15 +15 1009.4 1008.9
22 18.08 ЮЗ 4-6
{6}
35 км ясно +15.6 +11.8 78 +15 +15 1009.7 1009.2
23 18.08 ЮЗ 3-6
{7}
45 км ясно +14.9 +10.8 76 +14 +14 1009.9 1009.4
00 19.08 ЮЗ 5-8
{8}
30 км ясно +14.7 +11.1 79 +13 +13 1010.3 1009.9

 

Местоположение метеостанции Де Билт (Нидерланды): широта 52.10 долгота 5.18 высота над уровнем моря 4 м.

В архиве по умолчанию представлена погода в Де Билте за последнюю неделю. Архивные данные за месяц целиком и за предыдущие месяцы, начиная с января 2011 года, Вы можете получить, выбрав интересующий диапазон дат из раскрывающегося списка и нажав кнопку "Ввод!".


*Определитесь, кто Вы:
робот инопланетянин человек

Внимание! Время в таблицах - всемирное. Для получения местного времени необходимо прибавить поправку, которая равна 1 ч.

Смотрите также архив погоды в соседних городах и на ближайших метеорологических станциях:

Погода на Вышке Cabauw Tower (Нидерланды) (22 км)
Погода в Хервиньене (Нидерланды) (26 км)
Погода в Амстердаме (Нидерланды) (36 км)
Погода в Лелистаде (Нидерланды) (46 км)
Погода в Дилене (Нидерланды) (48 км)
Погода в Ворсхотене (Нидерланды) (51 км)
Погода в Валкенбурге (Нидерланды) (53 км)
Погода в Роттердам аэропорту (Нидерланды) (53 км)
Погода в Вейк-ан-Зе (Нидерланды) (57 км)
Погода в Эймёйдене (Нидерланды) (58 км)

Пояснения к столбцам:

Ветер - указаны скорость ветра в м/с - средняя за 10 мин, порывы в срок и между сроками (в фигурных скобках) и направление, откуда дует ветер: С - северный, СВ - северо-восточный, В - восточный, ЮВ - юго-восточный, Ю - южный, ЮЗ - юго-западный, З - западный, СЗ - северо-западный.
Видимость - горизонтальная дальность видимости в метрах или километрах. При видимости от 1 до 10 км при отсутствии осадков обычно наблюдается дымка, при ухудшении видимости до 1 км и менее - туман. В сухую погоду видимость может ухудшаться дымом, пылью или мглою.
Явления - указаны атмосферные явления, наблюдавшиеся в срок или в последний час перед сроком; фигурными скобками обозначены явления, наблюдавшиеся между сроками (за 1-3 часа до срока); квадратными скобками обозначены град или гололедные отложения с указанием их диаметра в мм.
Облачность - указаны через наклонную черту общая и нижняя облачность в баллах и высота нижней границы облаков в метрах; квадратными скобками обозначены формы облаков: Ci - перистые, Cs - перисто-слоистые, Cc - перисто-кучевые, Ac - высококучевые, As - высокослоистые, Sc - слоисто-кучевые, Ns - слоисто-дождевые, Cu - кучевые, Cb - кучево-дождевые. Подробнее классификацию облаков см. в Атласе облаков (PDF).
T - Температура воздуха - температура, измеренная на высоте 2 м над землей.
Td - Температура точки росы - температура, при понижении до которой содержащийся в воздухе водяной пар достигнет насыщения.
f - Относительная влажность воздуха - влажноcть воздуха, измеренная на высоте 2 м над землей.
Te - Эффективная температура - температура, которую ощущает одетый по сезону человек в тени. Характеристика душности погоды. При расчете учитывается влияние влажности воздуха и скорости ветра на теплоощущения человека.
Tes - Эффективная температура на солнце - температура, которую ощущает человек, с поправкой на солнечный нагрев. Характеристика знойности погоды. Зависит от высоты солнца над горизонтом, облачности и скорости ветра. Ночью, в пасмурную погоду, а также при ветре 12 м/с и более поправка равна нулю.
P - Атмосферное давление - приведенное к уровню моря атмосферное давление.
Po - Атмосферное давление - измеренное на уровне метеостанции атмосферное давление.
Tmin - Минимальная температура - минимум температуры воздуха на высоте 2 м над землей.
Tmax - Максимальная температура - максимум температуры воздуха на высоте 2 м над землей.
R - Количество осадков - Количество выпавших осадков за период времени, мм. При наведении курсора мыши на число - период времени, за который выпало указанное количество осадков.
R24 - Количество осадков - Количество выпавших осадков за 24 часа, мм.
S - Снежный покров - Высота снежного покрова, см. При наведении курсора мыши на число - состояние снежного покрова и степень покрытия местности в баллах.